Theodore Francis Green State Airport
KPVD : now visible

Airfield :











YOU CAN JOIN US ON...

 
LOGIN :

Register | Disclaimer

   EN    FR    IT 

 









Legend :    VFR   Marginal VFR   IFR   Intensive IFR   Very Intensive IFR
Visi :
Ceiling :
>= 8 km
>= 3000ft
5 to 8 km
1000 to 3000 ft
1500m to 5 km
500 to 1000 ft
800 to 1500m
200 to 500 ft
< 800m
< 200 ft
Symbols :   Thunderstorms  Fog  Heavy snow  Heavy precipitations  Wind > 20 kt






- Airport Elevation : 55 ft
- IATA code : PVD


KPVD - Theodore Francis Green State

CURRENT METAR :
  • 181051Z 26003KT 10SM CLR 17/09 A3003 RMK AO2 SLP168 T01670089

EXPIRED METARs :
  • 180951Z 26004KT 10SM CLR 14/08 A3003 RMK AO2 SLP168 T01390078
  • 180851Z AUTO 26005KT 10SM CLR 14/08 A3001 RMK AO2 SLP163 T01390078 53006

TAF KPVD
Valid from the 18 at 09:00 until the 19 at 06:00 UTC


180921Z 1809/1906 26005KT P6SM SKC
FM181400 23006KT P6SM SKC
FM181800 22010KT P6SM FEW250
FM190000 21009KT P6SM BKN250
KZBW FIR / North America



MET'MAP, your aeronautical weather chart ! - Copyright ORBIFLY December 2007 - Disclaimer

ORBIFLY MET'MAP TEAM :

Programming & Development : Alexandra Zaïnal
Concept & original design : Baudouin d'Aumeries
Assistance for programming : Marc-Olivier Méhu
Technical & hardware support : Manuel Goepfert

Contact : metmap@orbifly.com




SOURCES & CREDITS :

   NOAA       Earth
Advisory